Location: Unspecified
(0.0000°N, 0.0000°E)
Time: 11:05:23
(UTC+00:00)

Hubble Space Telescope - Visible Passes

Search period start: 24 September 2023 00:00
Search period end: 04 October 2023 00:00
Orbit: 522 x 525 km, 28.5° (Epoch: 24 September)

Date Brightness Start Highest point End Pass type
(mag) Time Alt. Az. Time Alt. Az. Time Alt. Az.
25 Sep 2.9 18:59:53 10° S 19:01:30 12° SSE 19:01:30 12° SSE visible
26 Sep 2.6 18:43:43 10° S 18:46:12 16° SSE 18:47:18 14° SE visible
27 Sep 2.4 18:27:48 10° SSW 18:30:48 20° SSE 18:33:09 13° ESE visible
27 Sep 3.7 20:07:37 10° WSW 20:08:12 14° WSW 20:08:12 14° WSW visible
28 Sep 2.1 18:11:59 10° SSW 18:15:21 25° SSE 18:18:42 10° E visible
28 Sep 3.0 19:52:15 10° WSW 19:54:05 24° W 19:54:05 24° W visible
29 Sep 2.2 19:36:57 10° W 19:39:57 32° NW 19:39:57 32° NW visible
30 Sep 2.3 19:21:43 10° W 19:25:11 27° NNW 19:25:49 26° NNW visible
01 Oct 2.8 19:06:34 10° W 19:09:42 21° NNW 19:11:38 16° N visible
02 Oct 1.1 05:17:06 10° NW 05:21:06 64° NNE 05:25:06 10° ESE visible
02 Oct 3.1 18:51:31 10° WNW 18:54:13 17° NNW 18:56:54 10° NNE visible
03 Oct 0.7 05:02:10 14° WNW 05:05:34 86° NNE 05:09:37 10° ESE visible
03 Oct 3.3 18:36:40 10° WNW 18:38:43 14° NNW 18:40:47 10° N visible
